User: anonymous   Login
Location: Unspecified
(0.0000°N, 0.0000°E)
Time: 20:46:10
(UTC+00:00)
Language:

USA 247 - Orbit

View from above orbital plane
View from above orbital plane
View from above satellite
View from above satellite

Ground track
Ground track

The orbit data is extracted from the following two-line orbital elements,

1 39462U 13072A   21129.08927600 0.00000000  00000-0  00000-0 0    07
2 39462 122.9988 357.5233 0002797 115.3570 244.6429 13.41428110    06
Epoch (UTC): 09 May 2021 02:08:33
Eccentricity: 0.0002797
inclination: 122.9988°
perigee height: 1102 km
apogee height: 1106 km
right ascension of ascending node: 357.5233°
argument of perigee: 115.3570°
revolutions per day: 13.41428110
mean anomaly at epoch: 244.6429°
orbit number at epoch: 0

The dashed part of the orbit path shows where the satellite is in the earth's shadow,  

DLR